sat.trackr.live / text

‹ back to catalog

STARLINK-2364

NORAD 47904 · 2021-021AW

PAYLOAD ACTIVE UNKNOWN

§ Identity

Operator
Country
US
Launch date
2021-03-14
Launch site
AFETR
Launch vehicle
Mass (kg)
RCS (m²)

Purposes: comms

External: N2YO · Heavens-Above · Gunter

§ Orbital elements

Epoch: 2026-05-25T00:29:03.177888Z

Period
94.01 min
Inclination
53.1559°
Eccentricity
0.0000971
Mean motion
15.31707700 rev/d
Perigee alt
470.1 km
Apogee alt
471.4 km
Semi-major
6,848.9 km
B*
2.4913e-4
RAAN
260.2440°
Arg perigee
84.0941°
Mean anomaly
276.0171°
Rev number
28,810

§ Raw data

STARLINK-23641 47904U 21021AW  26145.02017567  .00007375  00000+0  24913-3 0  99992 47904  53.1559 260.2440 0000971  84.0941 276.0171 15.31707700288109

JSON: /api/v1/satellites/47904 · /tle

For live sub-satellite position, see the globe view (requires WebGL).

§ Visibility from observer

Set your observer location to see the next 7 days of passes ≥ 10°. The values pass through the URL so the page stays shareable.

No JS? Fill the form by hand. The geolocation button needs JavaScript.